Location: *
(46.1006°N, 1.8394°E)
Time: 10:21:20
(UTC+00:00)

ADEOS Rocket - Pass Details

Date: 20 September 2019
Orbit: 859 x 1306 km, 98.7° (Epoch: 15 October)

Event Time Altitude Azimuth Distance (km) Brightness Sun altitude
Rises 18:36:36 0° 23° (NNE) 4,105 6.1 -8.0°
Reaches altitude 10° 18:39:43 10° 35° (NE) 3,195 5.4 -8.5°
Maximum altitude 18:45:50 27° 91° (E) 2,241 4.3 -9.6°
Drops below altitude 10° 18:52:08 10° 146° (SE) 3,313 5.3 -10.6°
Sets 18:55:24 0° 158° (SSE) 4,283 6.0 -11.2°
